sat.trackr.live / text

‹ back to catalog

STARLINK-4162

NORAD 53288 · 2022-086AY

PAYLOAD ACTIVE UNKNOWN

§ Identity

Operator
Country
US
Launch date
2022-07-24
Launch site
AFETR
Launch vehicle
Mass (kg)
RCS (m²)

Purposes: comms

External: N2YO · Heavens-Above · Gunter

§ Orbital elements

Epoch: 2026-05-24T13:46:18.849792Z

Period
95.44 min
Inclination
53.2137°
Eccentricity
0.0001383
Mean motion
15.08837604 rev/d
Perigee alt
538.8 km
Apogee alt
540.7 km
Semi-major
6,917.9 km
B*
-5.6857e-6
RAAN
203.4643°
Arg perigee
98.1268°
Mean anomaly
261.9881°
Rev number
21,264

§ Raw data

STARLINK-41621 53288U 22086AY  26144.57382928 -.00000378  00000+0 -56857-5 0  99902 53288  53.2137 203.4643 0001383  98.1268 261.9881 15.08837604212642

JSON: /api/v1/satellites/53288 · /tle

For live sub-satellite position, see the globe view (requires WebGL).

§ Visibility from observer

Set your observer location to see the next 7 days of passes ≥ 10°. The values pass through the URL so the page stays shareable.

No JS? Fill the form by hand. The geolocation button needs JavaScript.